130  
ASUS41 KRLX 150110  
RWRRLX  
REGIONAL WEATHER ROUNDUP  
NATIONAL WEATHER SERVICE CHARLESTON WV  
900 PM EDT FRI JUN 14 2024  
 
NOTE: "FAIR" INDICATES FEW OR NO CLOUDS BELOW 12,000 FEET WITH NO  
SIGNIFICANT WEATHER AND/OR S TO VISIBILITY
.  
 
WVZ003-150200-  
NORTHERN PANHANDLE OF WEST VIRGINIA  
 
CITY SKY/WX TMP DP RH WIND PRES REMARKS
 
WHEELING PTCLDY 70 65 84 CALM 29.98R  

 
 
WVZ009-150200-  
NORTHWEST WEST VIRGINIA  
 
CITY SKY/WX TMP DP RH WIND PRES REMARKS
 
PARKERSBURG MOCLDY 69 66 90 CALM 29.96S  

 
 
WVZ006-150200-  
WESTERN WEST VIRGINIA  
 
CITY SKY/WX TMP DP RH WIND PRES REMARKS
 
HUNTINGTON CLEAR 81 63 54 NW3 29.93R  
POINT PLEASANT NOT AVBL  

 
 
WVZ015-150200-  
WEST CENTRAL WEST VIRGINIA  
 
CITY SKY/WX TMP DP RH WIND PRES REMARKS
 
CHARLESTON MOCLDY 79 63 57 CALM 29.93R  

 
 
WVZ509-031-039-150200-  
NORTH CENTRAL WEST VIRGINIA  
 
CITY SKY/WX TMP DP RH WIND PRES REMARKS
 
MORGANTOWN MOCLDY 68 64 87 CALM 29.98R  
CLARKSBURG MOCLDY 67 64 90 CALM 29.96R  
BUCKHANNON MOCLDY 72 61 68 CALM 29.97S  
SUTTON CLOUDY 73 63 68 CALM 29.96R  

 
 
WVZ515-516-025-034-042-507-150200-  
SOUTHERN WEST VIRGINIA  
 
CITY SKY/WX TMP DP RH WIND PRES REMARKS
 
BECKLEY CLOUDY 75 59 57 NW5 30.02R  
LOGAN NOT AVBL  
PINEVILLE CLOUDY 76 67 73 MISG 30.03R  
BLUEFIELD CLOUDY 73 61 65 CALM 30.04R  
LEWISBURG CLOUDY 76 60 57 N5 30.01R  

 
 
WVZ525-526-150200-  
NORTHERN MOUNTAINS OF WEST VIRGINIA  
 
CITY SKY/WX TMP DP RH WIND PRES REMARKS
 
ELKINS PTCLDY 67 63 87 CALM 30.00R  

 
 
WVZ502-504-052-150200-  
EASTERN PANHANDLE OF WEST VIRGINIA  
 
CITY SKY/WX TMP DP RH WIND PRES REMARKS
 
PETERSBURG MOCLDY 66 65 97 CALM 29.95R  
CUMBERLAND MOCLDY 65 63 93 S3 29.97R  
MARTINSBURG LGT RAIN 67 64 90 N8 29.91R FOG  

 
 
OHZ075-083-KYZ101-150200-  
SOUTHEAST OHIO/NORTHEAST KENTUCKY  
 
CITY SKY/WX TMP DP RH WIND PRES REMARKS
 
ATHENS PTCLDY 67 65 90 CALM 29.96S  
JACKSON TSTM 70 64 83 SW6G30 29.95R VSB 1  
ASHLAND CLEAR 76 76 100 CALM 29.92R  

 
 
 
CLICK HERE TO GO TO PREVIOUS BULLETINS.

The Nexlab WV Page
The Nexlab OH Page
The Nexlab KY Page
The Nexlab VA Page Main Text Page